Regional Weather Roundup
Issued by NWS

Home | Current Version | Previous Version | Text Only | Print | Product List | Glossary Off
Versions: 1 2 3 4 5 6 7 8 9 10 11 12 13 14 15 16 17 18 19 20 21 22 23 24 25 26 27 28 29 30 31 32 33 34 35 36 37 38 39 40 41 42 43 44 45 46 47 48 49 50

000
ASUS44 KMEG 072300
RWRTN
TENNESSEE HOURLY STATE WEATHER ROUNDUP
NATIONAL WEATHER SERVICE MEMPHIS TN
500 PM CST WED DEC 07 2016

TNZ002-004-019-021-049-052-054-088>092-080000-
WEST TENNESSEE

CITY           SKY/WX    TMP DP  RH WIND       PRES   REMARKS
MEMPHIS INTL   CLOUDY    44  33  65 NE10G24   30.20R
NWS MEMPHIS      N/A     42 N/A N/A MISG        N/A
JACKSON        PTCLDY    43  33  68 NW5       30.19R
DYERSBURG      CLOUDY    43  27  52 N3        30.21R
UNION CITY     CLOUDY    41  28  60 CALM      30.19R
PARIS          PTCLDY    37  23  56 CALM      30.17S
LEXINGTON      CLEAR     43  30  61 NW5       30.18R
$$

TNZ008-025-027-028-033-062-065-066-080000-
NORTH MIDDLE TENNESSEE

CITY           SKY/WX    TMP DP  RH WIND       PRES   REMARKS
NASHVILLE      MOCLDY    44  30  57 N7        30.16R
CLARKSVILLE    CLOUDY    40  23  50 N7        30.17R
SMYRNA         PTCLDY    42  32  67 N6        30.16R
CROSSVILLE     MOCLDY    39  33  79 CALM      30.10R
$$

TNZ061-075-076-078-094-096-097-080000-
SOUTH MIDDLE TENNESSEE

CITY           SKY/WX    TMP DP  RH WIND       PRES   REMARKS
TULLAHOMA      MOCLDY    37  34  87 CALM      30.13R
WINCHESTER     CLOUDY    39  36  87 N6        30.13R WCI  35
MCMINNVILLE    CLOUDY    41  34  75 CALM        N/A
SHELBYVILLE    CLEAR     41  36  81 CALM      30.15R
$$

TNZ017-018-042-046-047-080000-
NORTHEAST TENNESSEE

CITY           SKY/WX    TMP DP  RH WIND       PRES   REMARKS
TRI CITIES     PTCLDY    45  30  55 N6        30.06R
$$

TNZ012-013-036-069-073-074-080000-
CENTRAL EAST TENNESSEE

CITY           SKY/WX    TMP DP  RH WIND       PRES   REMARKS
KNOXVILLE      CLOUDY    50  39  66 N7        30.06R
OAK RIDGE      CLOUDY    47  36  65 CALM      30.10R
GATLINBURG     MOCLDY    48  37  66 CALM      30.05S
$$

TNZ083-085-099-080000-
SOUTHEAST TENNESSEE

CITY           SKY/WX    TMP DP  RH WIND       PRES   REMARKS
CHATTANOOGA    CLOUDY    51  37  58 W7        30.08R
$$

SKY/WX REPORTED AS FAIR MEANS FEW OR NO CLOUDS BELOW
12 THOUSAND FEET.





USA.gov is the U.S. government's official web portal to all federal, state and local government web resources and services.